Location: �chenoz-la-M�line
(47.6009°N, 6.1354°E)
Time: 13:06:57
(UTC+00:00)

Cosmos 2237 Rocket - Pass Details

Date: 27 January 2021
Orbit: 833 x 851 km, 71.0° (Epoch: 02 March)

Event Time Altitude Azimuth Distance (km) Brightness Sun altitude
Exits shadow 03:42:50 44° 86° (E) 1,156 3.2 -34.5°
Drops below altitude 10° 03:47:30 10° 37° (NE) 2,484 5.1 -33.7°
Sets 03:50:02 0° 32° (NNE) 3,425 5.9 -33.3°
